Location: Demmingen
(48.6757°N, 10.4375°E)
Time: 08:57:43
(UTC+00:00)

CZ-2C R/B - Pass Details

Date: 08 August 2024
Orbit: 703 x 903 km, 98.2° (Epoch: 16 September)

Event Time Altitude Azimuth Distance (km) Brightness Sun altitude
Rises 00:27:07 0° 23° (NNE) 3,161 7.6 -23.8°
Reaches altitude 10° 00:29:40 10° 35° (NE) 2,259 6.4 -23.6°
Maximum altitude 00:33:55 28° 95° (E) 1,404 4.4 -23.4°
Enters shadow 00:35:42 23° 128° (SE) 1,605 4.5 -23.3°
